Regional Weather Roundup
Issued by NWS

Home | Current Version | Previous Version | Text Only | Print | Product List | Glossary Off
Versions: 1 2 3 4 5 6 7 8 9 10 11 12 13 14 15 16 17 18 19 20 21 22 23 24 25 26 27 28 29 30 31 32 33 34 35 36 37 38 39 40 41 42 43 44 45 46 47 48 49 50

000
ASUS43 KMKX 010311
RWRWI

WISCONSIN REGIONAL WEATHER ROUNDUP
NATIONAL WEATHER SERVICE MILWAUKEE/SULLIVAN WI
1000 PM CDT FRI SEP 30 2016

NOTE: "FAIR" INDICATES FEW OR NO CLOUDS BELOW 12,000 FEET WITH NO
SIGNIFICANT WEATHER AND/OR OBSTRUCTIONS TO VISIBILITY.

WIZ001-002-006>008-014>016-023>028-010400-
NORTHWEST WISCONSIN

CITY           SKY/WX    TMP DP  RH WIND       PRES   REMARKS
SUPERIOR ARPT  CLOUDY    53  52  97 NE8       30.29F
ASHLAND        FOG       52  52 100 NE12      30.28F VSB 1/4
HAYWARD        CLEAR     52  50  93 NE6       30.26F
SIREN          CLOUDY    54  52  91 NE3       30.26S
CUMBERLAND     CLEAR     54  50  87 NE7       30.24S
RICE LAKE      CLEAR     55  52  88 N6        30.24S
CHETEK         NOT AVBL
LADYSMITH      CLEAR     56  53  91 NE6       30.25S
EAU CLAIRE     PTCLDY    60  52  74 NE6       30.19S
MENOMONIE      CLEAR     60  51  71 N6        30.20S
NEW RICHMOND   CLEAR     56  51  84 N3        30.22S
OSCEOLA        CLEAR     57  52  84 N3        30.25S
$$

WIZ003>005-009-010-017-018-010400-
NORTH CENTRAL WISCONSIN

CITY           SKY/WX    TMP DP  RH WIND       PRES   REMARKS
MANITOWISH WTR NOT AVBL
ARBOR VITAE    CLEAR     57  52  85 NE3       30.26S
WOODRUFF       CLEAR     57  52  85 NE3       30.26S
RHINELANDER    CLEAR     58  49  72 NE8       30.26S
EAGLE RIVER    CLEAR     52  48  84 NE6       30.26S
LAND O LAKES   PTCLDY    54  50  87 NE5       30.29S
PHILLIPS       CLEAR     55  53  92 NE7       30.24S
TOMAHAWK       CLEAR     56  47  70 NE5       30.25S
MEDFORD        CLOUDY    59  50  72 NE5       30.22S
MERRILL        CLEAR     55  49  81 NE6       30.23S
$$

WIZ029-030-035-036-043>047-010400-
CENTRAL WISCONSIN

CITY           SKY/WX    TMP DP  RH WIND       PRES   REMARKS
WAUSAU         CLOUDY    60  51  72 NE6       30.20S
MOSINEE        CLOUDY    61  54  77 NE10      30.22S
MARSHFIELD     CLOUDY    62  52  69 NE8       30.20R
STEVENS POINT  CLOUDY    59  51  75 E9        30.20S
WAUPACA        DRIZZLE   60  58  92 N5        30.19S
WAUTOMA        CLOUDY    57  56  96 N7        30.18F
WISC RAPIDS    CLOUDY    61  54  77 E8        30.20S
CAMP DOUGLAS   CLOUDY    60  55  83 E8        30.18S
$$

WIZ011>013-019>022-031-037>040-048>050-010400-
NORTHEAST WISCONSIN

CITY           SKY/WX    TMP DP  RH WIND       PRES   REMARKS
ANTIGO         PTCLDY    55  51  86 NE5       30.24S
SHAWANO        CLOUDY    63  53  70 NE9       30.20S
OCONTO         NOT AVBL
STURGEON BAY   CLOUDY    62  57  83 E12G18    30.20S
GREEN BAY      CLOUDY    62  60  93 NE16      30.18S
MANITOWOC      RAIN      61  59  93 NE6       30.16F FOG
APPLETON       LGT RAIN  59  59 100 NE13      30.16F
CLINTONVILLE   CLOUDY    61  52  72 NE9       30.19S
OSHKOSH        LGT RAIN  59  58  96 NE16      30.14F FOG
$$

WIZ032>034-041-042-053>061-010400-
SOUTHWEST WISCONSIN

CITY           SKY/WX    TMP DP  RH WIND       PRES   REMARKS
LA CROSSE      CLOUDY    64  57  78 E3        30.18R
SPARTA         CLOUDY    59  57  93 CALM      30.19S
VIROQUA        CLOUDY    57  57 100 NE6       30.19S
BOSCOBEL       CLOUDY    60  59  96 CALM      30.17S FOG
PRAIRIE DU CHI CLOUDY    60  56  84 CALM      30.16S
PLATTEVILLE    CLOUDY    59  59 100 NE3       30.14F
$$

WIZ056-057-062-063-064-067-068-010400-
SOUTH CENTRAL WISCONSIN

CITY           SKY/WX    TMP DP  RH WIND       PRES   REMARKS
REEDSBURG      NOT AVBL
BARABOO/DELLS  DRIZZLE   58  56  95 NE7       30.16S
LONE ROCK      CLOUDY    60  58  92 N7        30.16S
MINERAL POINT  CLOUDY    59  59 100 N6        30.14F
MADISON        LGT RAIN  59  58  96 N6        30.13F FOG
MIDDLETON      CLOUDY    60  60 100 N5        30.14S
WATERTOWN      DRIZZLE   59  59 100 N3        30.11F
MONROE         CLOUDY    59  57  94 N9        30.12S
JANESVILLE     NOT AVBL
$$

WIZ051-052-058>065-066-070>072-010400-
SOUTHEAST WISCONSIN

CITY           SKY/WX    TMP DP  RH WIND       PRES   REMARKS
MILWAUKEE      LGT RAIN  61  59  93 NE8       30.10F FOG
WAUKESHA       DRIZZLE   55  55 100 NE9       30.11F
MILWAUKEE/TIMM DRIZZLE   59  55  88 NE7       30.11F
RACINE         CLOUDY    62  58  86 E8        30.09F
BURLINGTON     CLOUDY    58  57  97 NE6       30.09F FOG
KENOSHA        CLOUDY    61  59  93 E10       30.08F
FOND DU LAC    LGT RAIN  61  59  93 NE14      30.14F
SHEBOYGAN      HVY RAIN  60  59  96 NE13      30.14F FOG
WEST BEND      DRIZZLE   68  68 100 NE12      30.12F
JUNEAU         RAIN      58  58  98 E3        30.13F
$$

LSZ147-162-010400-
LAKE SUPERIOR

STATION/POSITION TIME  TEMP    WIND        PRES    WAVE
                       AIR SEA DIR/SP/G            HT/PER
                 (UTC) (F)     (DEG/KT/KT) (MB)    (FT/S)
W MID LAKE BUOY  0250   55 56   80/ 10/ 12 1025.5F   2/ 5
DEVILS ISLAND    0300   50      10/  5/  6 1026.4F
SAXON HARBOR     0240   56      20/  6/  6 1025.1F
$$

LMZ867-665-643>646-010400-
LAKE MICHIGAN

STATION/POSITION TIME  TEMP    WIND        PRES    WAVE
                       AIR SEA DIR/SP/G            HT/PER
                 (UTC) (F)     (DEG/KT/KT) (MB)    (FT/S)
CHAMBERS ISLAND  0200   63      40/ 14/ 18 1022.7F
S GREEN BAY BUOY 0100   63 62   60/ 19/ 25 1021.9F
N MID LAKE BUOY  0250   64 65   90/ 23/ 27 1022.0F   5/ 5
NORTHPORT PIER   0200   64      80/ 15/ 23 1023.0F
SISTER BAY       0208   64     120/ 12/ 21   N/A
KEWAUNEE LAKESHO 0200   63      40/  9/ 14 1021.1F
SHEBOYGAN LAKESH 0300   61      50/ 14/ 16 1020.2F
PORT WASHINGTON  0200   61      50/ 12/ 15 1021.0F
ATWATER BUOY     0200   59 55   70/ 12/ 17 1019.6F
MILWAUKEE LAKESH 0210   58      50/ 11/ 12   N/A
S MID LAKE BUOY  0250   62 67   80/ 17/ 21 1017.6F   4/ 6
KENOSHA   LAKESH 0300   63      80/ 13/ 15 1017.9F
$$

TC  - TEMPERATURE IN CELSIUS
VSB - VISIBILITY IN STATUTE MILES
WCI - WIND CHILL INDEX
HX  - HEAT INDEX





USA.gov is the U.S. government's official web portal to all federal, state and local government web resources and services.